SB KEPS @ AMSAT $ORB13311.O Orbital Elements 13311.OSCAR
HR AMSAT ORBITAL ELEMENTS FOR OSCAR SATELLITES FROM WA5QGD FORT WORTH,TX November 7, 2013 BID: ORB13311.O TO ALL RADIO AMATEURS BT
Satellite: AO-07 Catalog number: 07530 Epoch time: 13311.19968875 Element set: 817 Inclination: 101.4474 deg RA of node: 295.5891 deg Eccentricity: 0.0012061 Arg of perigee: 010.4447 deg Mean anomaly: 054.9983 deg Mean motion: 12.53599240 rev/day Decay rate: -3.0e-08 rev/day^2 Epoch rev: 78370 Checksum: 309
Satellite: FO-29 Catalog number: 24278 Epoch time: 13311.15943071 Element set: 234 Inclination: 098.5367 deg RA of node: 350.4759 deg Eccentricity: 0.0351217 Arg of perigee: 153.4696 deg Mean anomaly: 285.1085 deg Mean motion: 13.53009259 rev/day Decay rate: -2.1e-07 rev/day^2 Epoch rev: 85064 Checksum: 310
Satellite: SO-33 Catalog number: 25509 Epoch time: 13311.17096131 Element set: 620 Inclination: 031.4333 deg RA of node: 338.0018 deg Eccentricity: 0.0350702 Arg of perigee: 329.7903 deg Mean anomaly: 077.2993 deg Mean motion: 14.29210307 rev/day Decay rate: 1.109e-05 rev/day^2 Epoch rev: 78536 Checksum: 277
Satellite: RS-22 Catalog number: 27939 Epoch time: 13311.72538101 Element set: 926 Inclination: 097.7984 deg RA of node: 132.1161 deg Eccentricity: 0.0014408 Arg of perigee: 091.5106 deg Mean anomaly: 268.7749 deg Mean motion: 14.64650554 rev/day Decay rate: 9.99e-06 rev/day^2 Epoch rev: 54030 Checksum: 317
Satellite: VO-52 Catalog number: 28650 Epoch time: 13311.12345618 Element set: 572 Inclination: 097.5644 deg RA of node: 322.3873 deg Eccentricity: 0.0026271 Arg of perigee: 166.6430 deg Mean anomaly: 233.8592 deg Mean motion: 14.84289030 rev/day Decay rate: 1.956e-05 rev/day^2 Epoch rev: 46028 Checksum: 309
Satellite: HO-68 Catalog number: 36122 Epoch time: 13311.17087858 Element set: 42 Inclination: 100.2869 deg RA of node: 004.4899 deg Eccentricity: 0.0007564 Arg of perigee: 028.6449 deg Mean anomaly: 331.5079 deg Mean motion: 13.16308350 rev/day Decay rate: -4.4e-07 rev/day^2 Epoch rev: 18722 Checksum: 300
/EX SB KEPS @ AMSAT $ORB13311.D Orbital Elements 13311.MICROS
HR AMSAT ORBITAL ELEMENTS FOR THE MICROSATS FROM WA5QGD FORT WORTH,TX November 7, 2013 BID: ORB13311.D TO ALL RADIO AMATEURS BT
Satellite: UO-11 Catalog number: 14781 Epoch time: 13311.13982474 Element set: 329 Inclination: 097.8856 deg RA of node: 010.2787 deg Eccentricity: 0.0009262 Arg of perigee: 175.4901 deg Mean anomaly: 184.6397 deg Mean motion: 14.81085229 rev/day Decay rate: 9.39e-06 rev/day^2 Epoch rev: 59509 Checksum: 335
Satellite: AO-16 Catalog number: 20439 Epoch time: 13311.09322115 Element set: 878 Inclination: 098.4851 deg RA of node: 247.8845 deg Eccentricity: 0.0012144 Arg of perigee: 096.7709 deg Mean anomaly: 329.4772 deg Mean motion: 14.32225622 rev/day Decay rate: 2.42e-06 rev/day^2 Epoch rev: 24269 Checksum: 307
Satellite: LO-19 Catalog number: 20442 Epoch time: 13311.11119484 Element set: 817 Inclination: 098.4551 deg RA of node: 249.2374 deg Eccentricity: 0.0013100 Arg of perigee: 087.4271 deg Mean anomaly: 340.8341 deg Mean motion: 14.32433476 rev/day Decay rate: 2.29e-06 rev/day^2 Epoch rev: 24289 Checksum: 281
Satellite: AO-27 Catalog number: 22825 Epoch time: 13310.91102058 Element set: 520 Inclination: 098.6349 deg RA of node: 253.5261 deg Eccentricity: 0.0007727 Arg of perigee: 223.2796 deg Mean anomaly: 177.5237 deg Mean motion: 14.29607460 rev/day Decay rate: 1.92e-06 rev/day^2 Epoch rev: 4902 Checksum: 294
Satellite: IO-26 Catalog number: 22826 Epoch time: 13311.09665749 Element set: 275 Inclination: 098.6291 deg RA of node: 253.9685 deg Eccentricity: 0.0008360 Arg of perigee: 215.5463 deg Mean anomaly: 208.8298 deg Mean motion: 14.29896524 rev/day Decay rate: 2.18e-06 rev/day^2 Epoch rev: 4918 Checksum: 343
Satellite: GO-32 Catalog number: 25397 Epoch time: 13311.17465637 Element set: 200 Inclination: 098.4366 deg RA of node: 272.8552 deg Eccentricity: 0.0000856 Arg of perigee: 172.9346 deg Mean anomaly: 255.4145 deg Mean motion: 14.23370612 rev/day Decay rate: 1.37e-06 rev/day^2 Epoch rev: 79628 Checksum: 307
Satellite: NO-44 Catalog number: 26931 Epoch time: 13311.21375063 Element set: 460 Inclination: 067.0524 deg RA of node: 250.7897 deg Eccentricity: 0.0006947 Arg of perigee: 263.5086 deg Mean anomaly: 164.0229 deg Mean motion: 14.29980554 rev/day Decay rate: 2.15e-06 rev/day^2 Epoch rev: 63187 Checksum: 307
Satellite: SO-50 Catalog number: 27607 Epoch time: 13311.11068167 Element set: 216 Inclination: 064.5560 deg RA of node: 188.9739 deg Eccentricity: 0.0032538 Arg of perigee: 105.5635 deg Mean anomaly: 052.4863 deg Mean motion: 14.73162283 rev/day Decay rate: 8.51e-06 rev/day^2 Epoch rev: 58476 Checksum: 311
Satellite: CO-55 Catalog number: 27844 Epoch time: 13310.96744337 Element set: 781 Inclination: 098.7014 deg RA of node: 317.9707 deg Eccentricity: 0.0009736 Arg of perigee: 190.9238 deg Mean anomaly: 201.2057 deg Mean motion: 14.21300806 rev/day Decay rate: 3.67e-06 rev/day^2 Epoch rev: 53701 Checksum: 306
Satellite: CO-57 Catalog number: 27848 Epoch time: 13310.99600020 Element set: 722 Inclination: 098.7103 deg RA of node: 317.5880 deg Eccentricity: 0.0009533 Arg of perigee: 196.9283 deg Mean anomaly: 195.7598 deg Mean motion: 14.21015889 rev/day Decay rate: 3.27e-06 rev/day^2 Epoch rev: 53694 Checksum: 336
Satellite: AO-51 Catalog number: 28375 Epoch time: 13311.20383259 Element set: 695 Inclination: 098.2214 deg RA of node: 261.0595 deg Eccentricity: 0.0082144 Arg of perigee: 303.9158 deg Mean anomaly: 110.7073 deg Mean motion: 14.41195798 rev/day Decay rate: 4.21e-06 rev/day^2 Epoch rev: 49193 Checksum: 305
Satellite: CP3 Catalog number: 31129 Epoch time: 13310.92932609 Element set: 592 Inclination: 097.9115 deg RA of node: 295.6190 deg Eccentricity: 0.0099248 Arg of perigee: 343.9538 deg Mean anomaly: 047.7784 deg Mean motion: 14.53925383 rev/day Decay rate: 2.207e-05 rev/day^2 Epoch rev: 34773 Checksum: 337
Satellite: CO-65 Catalog number: 32785 Epoch time: 13311.10646722 Element set: 781 Inclination: 097.7335 deg RA of node: 004.4502 deg Eccentricity: 0.0014025 Arg of perigee: 193.1141 deg Mean anomaly: 199.2381 deg Mean motion: 14.84258965 rev/day Decay rate: 1.911e-05 rev/day^2 Epoch rev: 29907 Checksum: 303
Satellite: PRISM Catalog number: 33493 Epoch time: 13311.87120498 Element set: 343 Inclination: 098.2320 deg RA of node: 113.7734 deg Eccentricity: 0.0019006 Arg of perigee: 086.0017 deg Mean anomaly: 274.3359 deg Mean motion: 14.86871281 rev/day Decay rate: 5.133e-05 rev/day^2 Epoch rev: 25926 Checksum: 291
Satellite: SOHLA-1 Catalog number: 33496 Epoch time: 13311.12049917 Element set: 191 Inclination: 098.1492 deg RA of node: 066.8972 deg Eccentricity: 0.0005950 Arg of perigee: 217.5392 deg Mean anomaly: 268.5769 deg Mean motion: 14.70426546 rev/day Decay rate: 7.05e-06 rev/day^2 Epoch rev: 25687 Checksum: 330
Satellite: SO-67 Catalog number: 35870 Epoch time: 13311.86928420 Element set: 589 Inclination: 097.1805 deg RA of node: 335.5244 deg Eccentricity: 0.0002763 Arg of perigee: 124.0991 deg Mean anomaly: 350.2294 deg Mean motion: 15.28638974 rev/day Decay rate: 8.320e-05 rev/day^2 Epoch rev: 23019 Checksum: 321
Satellite: TISAT-1 Catalog number: 36799 Epoch time: 13311.43874410 Element set: 608 Inclination: 098.0291 deg RA of node: 036.9808 deg Eccentricity: 0.0013687 Arg of perigee: 327.5166 deg Mean anomaly: 032.5198 deg Mean motion: 14.83902262 rev/day Decay rate: 3.582e-05 rev/day^2 Epoch rev: 17981 Checksum: 325
Satellite: STUDSAT Catalog number: 36801 Epoch time: 13309.62902179 Element set: 707 Inclination: 098.0424 deg RA of node: 039.7480 deg Eccentricity: 0.0010219 Arg of perigee: 307.9547 deg Mean anomaly: 170.7427 deg Mean motion: 14.90213242 rev/day Decay rate: 1.3975e-04 rev/day^2 Epoch rev: 17976 Checksum: 308
Satellite: ALMASAT-1 Catalog number: 38078 Epoch time: 13311.77115792 Element set: 771 Inclination: 069.4773 deg RA of node: 226.0835 deg Eccentricity: 0.0666252 Arg of perigee: 322.0866 deg Mean anomaly: 033.4890 deg Mean motion: 14.32644346 rev/day Decay rate: 4.7772e-04 rev/day^2 Epoch rev: 8974 Checksum: 333
Satellite: XATCOBEO Catalog number: 38082 Epoch time: 13311.77886453 Element set: 655 Inclination: 069.4679 deg RA of node: 181.6330 deg Eccentricity: 0.0489288 Arg of perigee: 297.6963 deg Mean anomaly: 057.5200 deg Mean motion: 14.78276086 rev/day Decay rate: 8.8620e-04 rev/day^2 Epoch rev: 9096 Checksum: 361
Satellite: SOMP Catalog number: 39135 Epoch time: 13310.88565086 Element set: 364 Inclination: 064.8732 deg RA of node: 120.1559 deg Eccentricity: 0.0004155 Arg of perigee: 325.2626 deg Mean anomaly: 034.8215 deg Mean motion: 15.01316112 rev/day Decay rate: 6.304e-05 rev/day^2 Epoch rev: 3024 Checksum: 256
Satellite: CUBEBUG-1 Catalog number: 39153 Epoch time: 13311.79784559 Element set: 558 Inclination: 098.0642 deg RA of node: 027.4795 deg Eccentricity: 0.0017946 Arg of perigee: 346.8941 deg Mean anomaly: 013.1793 deg Mean motion: 14.76745375 rev/day Decay rate: 1.921e-05 rev/day^2 Epoch rev: 2887 Checksum: 348
Satellite: ESTCUBE-1 Catalog number: 39161 Epoch time: 13311.67286604 Element set: 528 Inclination: 098.1181 deg RA of node: 029.1140 deg Eccentricity: 0.0010588 Arg of perigee: 024.8836 deg Mean anomaly: 335.2877 deg Mean motion: 14.69224920 rev/day Decay rate: 1.590e-05 rev/day^2 Epoch rev: 2706 Checksum: 295
/EX SB KEPS @ AMSAT $ORB13311.W Orbital Elements 13311.WEATHER
HR AMSAT ORBITAL ELEMENTS FOR WEATHER SATELLITES FROM WA5QGD FORT WORTH,TX November 7, 2013 BID: ORB13311.W TO ALL RADIO AMATEURS BT
Satellite: NOAA-10 Catalog number: 16969 Epoch time: 13311.53033705 Element set: 560 Inclination: 098.5343 deg RA of node: 336.1654 deg Eccentricity: 0.0012535 Arg of perigee: 180.5808 deg Mean anomaly: 338.4932 deg Mean motion: 14.27678062 rev/day Decay rate: 1.40e-06 rev/day^2 Epoch rev: 41239 Checksum: 293
